Vertical_Velocity
-1 -1 -0 -0 0 0 0 -0 -0 0 0 0 0 0 0 1 1 0 -0 -0 -1 -1 -1 -0 0 0 -0 -0 -0 -0 -0 -0 -0 -1 -1 -0 -0 -1 -1 -1 -1 -0 -0 -0 0 1 1 1 1 1 1 1 2 3 3 3 3 2 1 0 -0 -0 -1 -1 -1 -1 -1 -0 -0
-1 -1 -1 -0 -0 0 0 -0 0 0 1 0 0 0 -0 0 0 -0 -1 -1 -2 -1 -1 -0 -0 -0 -0 -1 -0 -0 -0 -0 -1 -1 -1 -0 -0 -0 -0 -0 -0 -0 -0 -0 0 0 1 0 1 1 1 1 3 4 3 3 2 2 1 -0 -0 -0 -0 -1 -1 -1 -1 -0 -0
-2 -1 -1 -0 0 0 0 -0 0 0 0 -0 -0 -0 -0 -0 -1 -1 -2 -2 -2 -1 -1 -1 -1 -1 -0 -1 -0 -0 -0 -0 -0 -0 -0 -0 -0 -0 -0 -0 -0 -0 -0 -0 0 0 0 -0 0 0 1 2 4 4 4 2 2 2 1 -0 -0 -0 -0 -1 -1 -1 -0 -0 0
-2 -1 -1 -0 0 0 -0 -0 -0 -0 -1 -1 -1 -1 -1 -1 -1 -1 -2 -2 -2 -1 -1 -1 -1 -1 -0 -0 -0 -0 0 0 0 0 -0 -0 -0 -0 -0 -0 -0 -0 -1 -0 -0 0 -0 -0 0 1 1 2 4 4 3 2 1 1 0 -0 -0 -0 -0 -1 -1 -1 -0 0 0
-1 -1 -0 0 0 -0 -1 -1 -1 -1 -2 -1 -1 -1 -1 -1 -1 -1 -1 -2 -2 -2 -2 -1 -1 -0 -0 0 0 1 1 1 1 0 0 -0 -0 -0 -0 0 -0 -1 -1 -1 -0 -0 0 0 1 1 2 2 3 2 2 1 1 0 -0 0 0 -0 -0 -1 -1 -1 0 1 1
-1 -1 -0 0 -0 -1 -1 -2 -2 -2 -2 -1 -0 -0 -1 -1 -0 -0 -1 -2 -2 -2 -2 -1 -1 -0 -0 1 1 1 1 1 1 1 0 -0 -0 0 0 0 -0 -1 -1 -1 -1 -0 0 1 2 2 2 2 2 1 1 1 1 0 0 -0 -1 -1 -0 -0 -1 -0 1 1 1
-1 -1 -0 -0 -1 -1 -2 -2 -2 -1 -1 0 1 -0 -1 -1 -0 -0 -1 -2 -2 -2 -2 -2 -2 -1 0 1 2 2 2 2 1 1 1 1 0 1 1 0 -1 -1 -1 -1 -1 -0 1 2 2 2 1 1 1 0 -0 1 1 1 0 -0 -1 -1 -0 -0 -0 0 1 1 2
-2 -1 -1 -1 -1 -1 -1 -2 -1 -0 0 1 1 -0 -1 -1 -1 -1 -1 -2 -2 -3 -3 -3 -2 -1 -0 1 2 2 2 3 2 2 1 1 1 1 0 -0 -1 -1 -1 -1 -0 0 1 2 2 2 1 1 0 -0 -0 0 1 1 0 -0 -1 -1 0 0 1 1 2 2 2
-2 -1 -1 -1 -1 -1 -1 -1 -0 0 1 1 -0 -1 -1 -1 -1 -1 -1 -2 -3 -3 -3 -2 -2 -1 -0 1 2 2 3 3 3 2 2 1 1 1 0 -0 -1 -1 -1 -1 0 1 2 2 2 1 1 0 0 -0 -0 0 0 -0 -0 -0 -0 -0 0 1 1 2 2 2 2
-2 -2 -1 -1 -1 -1 -1 -1 -0 0 1 -0 -1 -2 -2 -1 -1 -1 -1 -2 -2 -2 -2 -3 -2 -1 -0 1 2 3 3 4 4 3 2 1 1 1 0 -1 -1 -1 -1 -0 1 2 2 2 1 1 0 0 0 -0 -0 -0 0 -0 -1 -1 -0 0 0 0 1 2 2 2 2
-2 -2 -2 -2 -2 -1 -1 -0 -0 -0 -0 -1 -2 -2 -1 -1 -1 -1 -1 -2 -1 -2 -3 -3 -2 -1 -1 0 2 3 4 4 4 3 2 1 1 1 0 -1 -1 -1 -0 0 1 2 2 2 1 1 0 -0 0 0 -0 -0 -0 -0 -1 -1 -0 1 1 0 1 2 2 2 2
-2 -2 -2 -2 -2 -2 -1 -0 -0 -0 -1 -1 -1 -1 -1 -0 -1 -1 -1 -1 -1 -2 -3 -3 -2 -1 -1 0 1 3 4 4 4 2 1 1 0 0 -0 -1 -1 -0 0 1 2 2 2 2 1 1 0 -0 0 0 -0 -0 -1 -1 -1 -1 0 1 1 1 2 2 2 2 2
-2 -3 -3 -2 -2 -2 -1 -1 -1 -1 -1 -1 -1 -1 -0 -0 -1 -1 -1 -1 -1 -2 -2 -2 -2 -2 -1 -0 1 2 4 4 3 2 1 0 0 -0 -0 -1 -1 -0 1 1 2 2 2 2 1 1 1 0 0 0 -0 -0 -0 -0 -0 -0 0 1 1 1 2 2 2 2 1
-3 -3 -3 -2 -2 -1 -1 -1 -1 -1 -1 -0 -1 -0 -0 -0 -1 -1 -0 -0 -1 -1 -2 -2 -2 -2 -1 -0 1 2 3 4 3 2 1 0 -0 -0 -1 -1 -0 0 1 1 2 2 2 1 1 1 1 1 0 -0 -0 -0 -0 -0 0 1 1 1 1 2 1 1 1 0 -0
-4 -3 -3 -2 -2 -1 -1 -0 -1 -0 -0 0 -0 -0 0 -0 -1 -0 -0 -0 -1 -1 -2 -2 -2 -2 -1 -0 1 2 3 3 3 2 1 0 -0 -1 -1 -1 -0 0 1 1 1 1 1 1 1 1 1 1 0 -0 -0 -0 -0 0 1 1 2 2 2 2 2 1 1 -0 -0
-4 -3 -3 -2 -1 -1 -0 -0 -0 0 0 1 0 0 0 0 -0 0 0 0 -1 -1 -1 -2 -3 -3 -2 -1 0 1 2 4 4 3 2 0 -0 -1 -1 -1 -0 0 1 1 1 1 1 1 1 1 1 0 0 -0 -0 -0 -0 0 1 2 2 3 2 2 2 1 1 0 0
-3 -3 -2 -2 -1 -0 0 0 0 1 1 1 1 0 1 0 0 1 1 0 -0 -1 -2 -3 -3 -3 -2 -1 -0 1 3 4 4 4 2 1 -0 -1 -1 -0 0 0 1 1 1 1 1 1 1 1 1 0 -0 -0 -0 -0 0 1 2 2 2 2 2 2 2 1 1 1 1
-2 -2 -2 -1 -0 0 1 1 1 1 1 1 0 0 0 1 1 1 1 0 -0 -1 -2 -3 -3 -3 -2 -2 -0 1 3 4 4 4 3 1 0 -0 -0 -0 0 1 1 0 1 1 1 1 0 0 0 -0 -0 -0 0 1 1 1 2 2 2 2 2 2 1 1 1 1 1
-2 -1 -1 -0 0 1 1 1 1 1 1 0 -0 -0 0 1 1 1 1 -0 -1 -2 -3 -4 -4 -3 -3 -2 -0 1 3 4 4 5 4 2 1 0 0 0 1 1 0 0 1 1 1 1 0 0 -0 -0 -0 0 0 1 1 2 2 2 2 2 1 1 1 1 1 1 1
-1 -0 0 1 1 1 1 1 1 1 0 -0 -0 -0 0 1 1 1 0 -1 -2 -2 -3 -4 -4 -4 -3 -2 0 2 3 4 5 5 4 3 1 1 1 1 1 1 1 1 1 1 1 0 0 -0 -0 -0 0 1 1 1 2 2 2 1 1 1 1 1 1 1 1 1 1
-0 0 1 1 1 1 1 1 0 -0 -1 -1 -1 -0 1 1 1 0 -1 -2 -3 -3 -3 -4 -4 -4 -3 -2 0 2 4 5 6 6 5 3 2 1 1 1 1 1 1 1 0 0 0 0 0 -0 0 0 1 1 1 2 2 2 2 1 1 1 0 0 0 0 0 0 1
1 1 1 0 -0 -0 -0 -0 -0 -1 -1 -1 -0 0 1 1 1 -0 -1 -2 -3 -3 -3 -4 -4 -4 -3 -2 1 3 4 6 6 5 4 4 3 2 1 1 1 1 1 0 0 0 0 -0 -0 -0 0 0 1 1 1 2 2 2 2 1 1 1 1 1 0 0 0 0 0
1 1 0 -0 -0 -0 -0 -1 -1 -1 -1 -1 0 1 1 1 0 -1 -2 -2 -2 -3 -4 -4 -5 -4 -3 -1 1 3 5 5 5 5 4 3 3 2 1 1 1 1 1 0 0 0 0 -0 -0 -0 0 1 1 1 1 2 2 1 1 1 1 1 1 1 0 0 0 0 0
1 0 -0 -1 -1 -1 -1 -1 -1 -1 -0 1 1 1 1 1 -0 -1 -2 -2 -3 -3 -4 -5 -4 -4 -2 -0 2 4 5 5 5 4 4 3 2 2 2 2 2 1 1 0 0 0 -0 -0 -0 -0 0 1 1 1 1 2 1 1 1 1 1 1 1 1 0 0 0 0 0
-0 -1 -1 -1 -1 -1 -1 -1 -1 0 1 1 2 2 1 0 -1 -2 -2 -3 -3 -4 -4 -4 -4 -3 -1 0 2 4 4 5 4 4 3 2 1 1 2 2 2 1 1 0 0 -0 -0 -0 -0 -0 0 1 1 1 1 2 1 1 1 1 1 1 1 0 0 0 0 0 -0
-1 -2 -2 -2 -1 -1 -0 -0 0 1 1 2 2 2 1 -0 -1 -2 -2 -3 -4 -4 -4 -4 -3 -2 -1 1 2 3 4 5 4 4 2 1 1 1 2 2 2 1 1 0 0 -0 -0 -0 -0 -0 0 0 1 1 1 1 1 2 2 1 1 1 0 0 -0 -0 0 0 -0
-2 -2 -2 -1 -0 0 0 0 1 1 1 1 2 1 1 -0 -1 -2 -3 -4 -4 -5 -4 -3 -3 -2 -1 1 2 3 4 4 4 3 2 1 1 1 2 2 2 1 1 0 0 -0 -0 -0 -0 -0 -0 0 1 1 1 1 1 1 1 1 1 1 0 0 -0 -0 -0 -0 -0
-1 -1 -1 -0 0 1 1 1 1 1 1 1 1 1 0 -0 -1 -2 -3 -4 -4 -4 -4 -3 -2 -1 -0 1 2 3 4 4 4 2 2 1 1 2 2 2 2 1 1 0 1 0 -0 -1 -0 -0 0 0 1 1 1 1 1 1 1 1 0 0 0 0 -0 -0 -0 -0 -0
-0 -0 -0 0 1 1 1 1 1 1 1 1 0 -0 -1 -1 -1 -2 -3 -4 -4 -4 -3 -3 -2 -1 0 1 2 3 4 4 3 2 2 2 2 2 2 2 2 1 1 0 1 0 -0 -1 -0 0 0 1 1 1 1 1 1 1 0 0 -0 -0 -0 -0 -0 -0 -0 -0 -0
-1 -0 0 0 1 1 0 0 0 0 0 -0 -0 -0 -1 -1 -2 -2 -3 -3 -4 -4 -4 -3 -1 -0 0 1 2 3 3 3 2 2 2 2 2 2 2 2 1 1 1 0 1 1 -0 -0 -0 0 0 1 1 1 1 1 1 0 0 -0 -0 -0 -0 -0 -0 -0 -0 -0 0
-1 -1 -0 0 0 0 -0 -0 -0 -0 -0 -0 -0 -0 -1 -1 -2 -3 -4 -4 -4 -4 -3 -2 -1 -1 0 1 3 3 3 2 2 2 2 2 1 2 2 2 1 1 1 -0 1 1 0 -0 -0 -0 0 1 1 1 1 1 1 0 0 -0 -0 -0 -0 -1 -1 -1 -0 0 1
-0 -1 -1 -0 -0 -0 -0 -0 -0 0 0 0 -0 -0 -1 -1 -3 -4 -4 -4 -4 -3 -2 -1 -1 -0 1 2 3 3 3 3 2 2 2 2 2 2 2 2 1 1 0 0 1 1 0 -0 -0 0 0 0 1 1 1 1 0 -0 -0 -0 -0 -1 -1 -1 -1 -0 -0 1 1
3 1 -1 -1 -1 -1 -1 -0 0 1 1 0 -0 -1 -2 -2 -3 -4 -4 -4 -3 -2 -2 -2 -1 -0 1 2 3 3 3 3 2 2 2 2 2 2 2 1 1 0 0 0 1 0 0 -0 0 0 0 1 1 1 1 0 -0 -0 -1 -1 -1 -1 -1 -1 -0 -0 1 1 1
7 4 1 -1 -2 -2 -1 -0 0 1 1 -0 -1 -2 -2 -3 -3 -3 -3 -3 -3 -2 -2 -1 -0 0 1 2 3 4 3 3 3 2 2 2 2 2 2 1 1 0 0 0 0 0 -0 0 0 1 1 1 0 0 0 0 -0 -0 -1 -1 -1 -1 -1 -0 0 1 1 1 1
9 6 3 0 -1 -1 -1 -0 0 0 -0 -1 -1 -2 -2 -2 -3 -3 -3 -3 -2 -2 -1 -1 -0 1 2 2 4 4 4 3 2 2 2 2 2 2 1 1 0 0 0 1 0 -0 -0 0 0 1 1 1 1 1 1 0 -0 -1 -1 -1 -1 -1 -0 0 1 2 2 1 1
9 7 5 2 1 1 0 0 0 -0 -1 -1 -2 -2 -2 -2 -2 -2 -3 -3 -2 -1 -1 -1 0 1 2 3 4 4 4 3 2 2 2 2 2 2 1 0 -0 0 0 1 0 -0 -0 0 0 1 1 1 1 1 1 -0 -1 -1 -1 -1 -0 -0 1 1 2 2 2 1 1
10 8 6 4 3 3 2 1 1 -0 -1 -2 -2 -2 -1 -1 -2 -2 -2 -1 -1 -1 -1 -0 1 2 2 3 4 3 3 2 2 1 1 1 2 1 1 -0 -0 0 1 1 0 0 -0 -0 -0 1 1 2 1 1 0 -1 -1 -1 -1 -0 0 1 2 2 2 2 2 1 1
10 9 7 5 4 4 3 2 1 0 -1 -2 -1 -1 -1 -1 -1 -1 -1 -0 0 -0 -0 1 1 2 2 3 3 3 2 2 1 1 1 1 1 1 1 -0 -0 0 1 1 1 0 -0 -1 -0 1 2 2 1 0 -0 -1 -1 -1 -0 0 1 2 2 2 2 2 2 1 1
10 10 9 7 5 4 4 3 2 0 -0 -1 -0 -0 -0 0 -0 -0 -1 0 1 1 1 1 2 2 2 3 3 2 1 1 1 1 1 0 0 1 1 1 0 0 0 1 1 0 -0 -1 1 3 3 3 1 0 -1 -1 -0 0 1 2 2 3 3 2 2 1 1 1 1
6 8 9 9 7 6 4 3 2 0 -0 0 1 1 0 0 -0 -0 0 1 2 2 2 2 2 2 3 3 2 1 1 1 1 1 1 0 0 1 1 1 1 0 0 1 1 0 -0 -0 2 4 4 3 1 0 -0 -0 1 1 2 2 3 3 3 2 1 1 1 1 1
2 4 6 7 7 6 5 4 3 2 1 1 1 0 -0 -0 0 1 2 3 4 4 4 3 3 3 3 3 2 2 2 2 1 1 1 1 1 1 1 1 1 1 1 1 1 0 -0 1 3 4 4 2 1 1 0 1 2 3 3 3 3 3 3 2 1 1 1 1 1
Height
5720 5722 5724 5726 5728 5730 5731 5732 5734 5735 5737 5739 5740 5741 5742 5743 5744 5745 5745 5746 5747 5748 5749 5750 5751 5752 5753 5754 5755 5755 5756 5757 5757 5758 5758 5759 5759 5759 5760 5760 5760 5761 5761 5762 5762 5763 5764 5765 5765 5766 5766 5767 5767 5767 5767 5767 5767 5766 5766 5765 5765 5764 5763 5763 5762 5761 5761 5760 5760
5718 5720 5723 5725 5726 5728 5729 5731 5732 5734 5735 5737 5738 5739 5740 5741 5742 5743 5743 5744 5745 5745 5747 5748 5749 5750 5751 5752 5753 5754 5754 5755 5755 5755 5756 5756 5756 5757 5757 5758 5758 5758 5759 5759 5760 5760 5761 5762 5763 5763 5764 5764 5765 5765 5765 5765 5765 5764 5764 5763 5762 5761 5761 5760 5760 5759 5758 5758 5757
5716 5719 5721 5723 5725 5726 5728 5729 5731 5732 5734 5735 5736 5737 5738 5739 5740 5741 5741 5742 5743 5744 5745 5745 5746 5748 5749 5750 5750 5751 5752 5753 5753 5753 5754 5754 5754 5755 5755 5755 5755 5756 5756 5757 5757 5758 5759 5760 5760 5761 5761 5762 5762 5762 5762 5762 5762 5761 5761 5760 5760 5759 5758 5758 5757 5757 5756 5755 5755
5715 5717 5719 5721 5723 5725 5726 5728 5729 5730 5732 5733 5734 5735 5736 5737 5738 5739 5739 5740 5740 5741 5742 5743 5745 5745 5747 5748 5749 5750 5750 5750 5751 5751 5751 5752 5752 5752 5753 5753 5753 5753 5754 5754 5755 5755 5756 5757 5758 5758 5759 5759 5760 5760 5760 5760 5759 5759 5758 5758 5757 5756 5756 5755 5755 5754 5754 5753 5752
5713 5715 5717 5719 5721 5722 5724 5725 5727 5728 5730 5731 5732 5733 5734 5735 5736 5737 5737 5738 5738 5739 5740 5741 5742 5744 5745 5746 5747 5748 5748 5749 5749 5749 5749 5750 5750 5750 5750 5750 5750 5750 5751 5751 5752 5753 5754 5755 5755 5756 5756 5757 5757 5757 5757 5756 5756 5756 5755 5755 5755 5754 5754 5753 5753 5752 5751 5751 5750
5711 5713 5715 5717 5719 5720 5722 5723 5725 5726 5728 5729 5730 5731 5732 5733 5734 5735 5735 5735 5736 5736 5737 5739 5740 5741 5743 5744 5745 5746 5746 5747 5747 5747 5747 5747 5748 5748 5748 5748 5748 5748 5749 5749 5750 5751 5752 5753 5753 5754 5754 5754 5754 5754 5754 5754 5754 5753 5753 5753 5752 5752 5751 5751 5750 5750 5749 5749 5748
5709 5711 5713 5715 5716 5718 5719 5721 5723 5724 5726 5727 5728 5730 5730 5731 5732 5732 5733 5733 5734 5734 5735 5736 5738 5740 5741 5742 5743 5744 5744 5745 5745 5745 5745 5745 5745 5746 5746 5746 5746 5746 5746 5747 5748 5749 5750 5750 5751 5751 5751 5751 5751 5751 5751 5751 5751 5751 5751 5750 5750 5750 5749 5748 5748 5747 5747 5746 5745
5706 5709 5710 5712 5714 5716 5717 5719 5720 5722 5724 5725 5726 5727 5728 5729 5730 5730 5730 5731 5731 5732 5733 5734 5735 5737 5739 5740 5741 5742 5742 5743 5743 5743 5743 5743 5744 5744 5744 5743 5744 5744 5744 5745 5746 5747 5747 5748 5749 5749 5749 5749 5749 5749 5749 5749 5748 5748 5748 5748 5748 5747 5747 5746 5745 5745 5745 5744 5743
5704 5706 5708 5710 5712 5714 5715 5717 5719 5720 5722 5723 5724 5725 5726 5726 5727 5728 5729 5729 5730 5730 5731 5732 5733 5735 5736 5737 5739 5740 5740 5741 5741 5741 5741 5741 5741 5741 5741 5741 5742 5742 5742 5743 5744 5745 5745 5746 5746 5746 5746 5746 5746 5746 5746 5746 5746 5746 5746 5745 5745 5745 5744 5744 5743 5743 5742 5742 5741
5703 5705 5706 5708 5710 5711 5713 5715 5716 5718 5719 5720 5721 5722 5723 5724 5725 5726 5726 5727 5727 5728 5729 5730 5730 5732 5734 5735 5736 5737 5738 5739 5739 5739 5739 5739 5740 5740 5740 5740 5740 5740 5740 5741 5742 5743 5743 5744 5744 5744 5744 5744 5744 5744 5744 5744 5743 5743 5743 5743 5743 5742 5742 5742 5741 5740 5740 5740 5739
5701 5703 5705 5706 5708 5710 5711 5713 5714 5715 5717 5718 5719 5720 5721 5722 5723 5724 5724 5725 5725 5726 5726 5727 5728 5729 5731 5732 5734 5735 5736 5737 5737 5737 5737 5737 5737 5738 5738 5738 5738 5738 5739 5740 5740 5741 5741 5742 5742 5742 5742 5742 5742 5741 5741 5741 5741 5741 5740 5740 5740 5740 5740 5739 5739 5738 5738 5737 5736
5699 5700 5702 5704 5706 5707 5709 5710 5712 5713 5715 5716 5717 5718 5719 5720 5721 5721 5722 5722 5723 5723 5724 5725 5725 5727 5728 5730 5731 5733 5734 5735 5735 5735 5735 5735 5735 5735 5736 5736 5736 5736 5737 5738 5738 5739 5739 5740 5740 5740 5740 5740 5740 5739 5739 5739 5739 5739 5738 5738 5738 5738 5737 5737 5736 5736 5735 5734 5733
5696 5698 5700 5702 5703 5705 5707 5708 5710 5711 5712 5713 5715 5715 5717 5717 5718 5719 5720 5720 5721 5721 5722 5722 5723 5724 5726 5727 5729 5730 5731 5732 5733 5733 5733 5733 5734 5734 5734 5734 5734 5735 5735 5736 5736 5737 5737 5737 5737 5737 5738 5737 5737 5737 5737 5737 5736 5736 5736 5736 5736 5735 5735 5735 5734 5733 5732 5731 5730
5694 5696 5698 5700 5701 5703 5705 5706 5707 5709 5710 5711 5712 5713 5714 5715 5716 5716 5717 5718 5719 5719 5720 5720 5721 5722 5723 5725 5726 5728 5729 5730 5731 5731 5731 5731 5732 5732 5732 5732 5732 5733 5733 5734 5734 5735 5735 5735 5735 5735 5735 5735 5735 5735 5735 5734 5734 5734 5734 5734 5734 5733 5733 5732 5732 5731 5730 5729 5728
5692 5694 5695 5697 5699 5701 5702 5704 5705 5706 5708 5709 5710 5711 5712 5713 5713 5714 5715 5716 5716 5717 5717 5718 5718 5720 5721 5722 5724 5725 5727 5728 5729 5729 5730 5730 5730 5730 5730 5730 5730 5731 5731 5731 5732 5732 5732 5732 5733 5733 5733 5733 5733 5733 5732 5732 5732 5732 5732 5732 5732 5731 5731 5730 5729 5728 5727 5726 5725
5690 5692 5694 5695 5697 5699 5700 5701 5703 5704 5705 5706 5707 5708 5709 5710 5711 5712 5713 5713 5714 5715 5715 5715 5716 5717 5718 5720 5721 5723 5725 5726 5727 5728 5728 5728 5728 5728 5728 5728 5728 5729 5729 5729 5730 5730 5730 5730 5730 5731 5731 5730 5730 5730 5730 5730 5730 5730 5730 5730 5730 5729 5729 5728 5727 5726 5725 5724 5723
5688 5690 5691 5693 5695 5696 5698 5699 5700 5702 5703 5704 5705 5706 5707 5708 5709 5710 5710 5711 5712 5712 5713 5713 5714 5715 5716 5717 5719 5720 5722 5724 5725 5726 5726 5726 5726 5726 5726 5726 5726 5727 5727 5727 5727 5728 5728 5728 5728 5729 5728 5728 5728 5728 5728 5728 5728 5728 5728 5728 5727 5727 5726 5725 5725 5724 5723 5722 5721
5686 5688 5690 5691 5693 5694 5695 5697 5698 5700 5700 5702 5703 5704 5705 5705 5706 5707 5708 5709 5710 5710 5710 5711 5711 5712 5713 5715 5716 5718 5720 5721 5723 5724 5725 5725 5725 5724 5724 5725 5725 5725 5725 5725 5725 5725 5726 5726 5726 5726 5726 5726 5726 5726 5726 5726 5726 5726 5726 5725 5725 5725 5724 5723 5722 5721 5720 5720 5719
5684 5686 5687 5689 5690 5692 5693 5695 5696 5697 5698 5699 5700 5701 5702 5703 5704 5705 5706 5706 5707 5708 5708 5709 5709 5710 5711 5712 5714 5716 5717 5719 5721 5722 5723 5723 5723 5723 5723 5723 5723 5723 5723 5723 5723 5723 5724 5724 5724 5724 5724 5724 5724 5724 5724 5724 5724 5724 5724 5723 5723 5722 5721 5721 5720 5719 5718 5717 5716
5682 5684 5685 5687 5688 5690 5691 5692 5693 5695 5696 5697 5698 5699 5700 5701 5702 5703 5704 5704 5705 5705 5706 5706 5707 5708 5709 5710 5712 5713 5715 5717 5718 5720 5720 5721 5721 5721 5721 5721 5720 5720 5720 5721 5721 5721 5721 5722 5722 5722 5721 5721 5722 5722 5722 5722 5722 5721 5721 5721 5720 5720 5719 5718 5717 5716 5715 5714 5713
5680 5681 5683 5684 5686 5687 5689 5690 5691 5692 5693 5694 5695 5697 5698 5699 5700 5701 5701 5702 5702 5703 5703 5704 5705 5705 5706 5708 5709 5711 5713 5714 5716 5717 5718 5719 5719 5719 5719 5719 5719 5719 5719 5719 5719 5719 5719 5719 5719 5719 5719 5720 5720 5720 5720 5720 5720 5720 5719 5719 5718 5717 5717 5716 5715 5714 5713 5712 5711
5677 5679 5680 5682 5683 5685 5686 5687 5688 5690 5691 5692 5693 5695 5696 5697 5698 5698 5699 5700 5700 5700 5701 5702 5702 5703 5704 5705 5707 5709 5710 5712 5713 5715 5716 5717 5717 5717 5717 5717 5717 5717 5717 5717 5717 5717 5717 5717 5717 5717 5717 5717 5718 5718 5718 5718 5718 5717 5717 5716 5716 5715 5715 5713 5712 5711 5710 5709 5708
5675 5676 5678 5679 5681 5682 5684 5685 5686 5687 5689 5690 5691 5692 5694 5695 5695 5696 5697 5697 5698 5699 5699 5700 5700 5701 5702 5703 5705 5706 5708 5709 5711 5712 5713 5714 5715 5715 5715 5715 5715 5715 5715 5715 5715 5715 5715 5715 5715 5715 5715 5715 5715 5716 5716 5716 5715 5715 5715 5714 5714 5713 5712 5711 5710 5709 5708 5707 5706
5672 5674 5675 5677 5678 5680 5681 5682 5684 5685 5686 5688 5689 5690 5691 5692 5693 5694 5695 5695 5696 5696 5697 5697 5698 5699 5700 5701 5703 5704 5705 5707 5708 5709 5710 5711 5712 5712 5713 5713 5713 5713 5713 5713 5713 5712 5712 5712 5713 5713 5713 5713 5714 5714 5714 5713 5713 5713 5712 5712 5711 5710 5710 5709 5708 5706 5705 5705 5704
5670 5671 5673 5675 5676 5677 5679 5680 5682 5683 5685 5686 5687 5689 5690 5690 5691 5692 5693 5693 5694 5694 5695 5695 5696 5697 5698 5699 5700 5702 5703 5704 5706 5707 5708 5709 5709 5710 5710 5711 5711 5711 5711 5711 5710 5710 5710 5710 5710 5710 5711 5711 5711 5711 5711 5711 5711 5710 5710 5710 5709 5708 5707 5706 5705 5704 5703 5702 5701
5668 5669 5670 5672 5674 5675 5677 5678 5680 5681 5682 5684 5685 5686 5687 5688 5689 5690 5690 5691 5691 5692 5692 5693 5694 5695 5695 5697 5698 5699 5701 5702 5703 5705 5705 5706 5707 5708 5708 5709 5709 5709 5709 5709 5708 5708 5708 5708 5708 5708 5709 5709 5709 5709 5709 5709 5709 5708 5708 5707 5707 5706 5705 5704 5703 5702 5701 5700 5700
5665 5667 5668 5670 5671 5673 5675 5676 5677 5679 5680 5682 5683 5684 5685 5686 5687 5688 5688 5689 5689 5690 5690 5691 5692 5693 5694 5695 5696 5697 5699 5700 5701 5702 5703 5704 5705 5705 5706 5706 5707 5707 5707 5706 5706 5706 5706 5706 5706 5706 5707 5707 5707 5707 5707 5707 5706 5706 5705 5705 5704 5703 5703 5702 5701 5700 5699 5698 5697
5664 5665 5666 5668 5670 5671 5673 5674 5675 5677 5678 5679 5681 5682 5683 5684 5685 5685 5686 5686 5687 5688 5688 5689 5690 5691 5692 5693 5694 5695 5697 5698 5699 5700 5701 5702 5702 5703 5704 5704 5705 5705 5705 5705 5705 5705 5705 5704 5704 5705 5705 5705 5705 5705 5705 5705 5704 5704 5703 5703 5702 5701 5700 5700 5699 5698 5697 5696 5695
5662 5664 5665 5666 5668 5669 5670 5672 5673 5675 5676 5677 5678 5680 5680 5681 5682 5683 5684 5685 5685 5686 5686 5687 5688 5689 5690 5691 5692 5694 5695 5696 5697 5698 5699 5700 5700 5701 5702 5702 5702 5703 5703 5703 5703 5703 5702 5702 5702 5702 5702 5703 5703 5703 5703 5702 5702 5702 5701 5700 5700 5699 5698 5698 5697 5696 5695 5694 5693
5660 5662 5664 5665 5666 5667 5669 5670 5671 5673 5674 5675 5676 5677 5678 5679 5680 5681 5682 5682 5683 5684 5685 5685 5686 5687 5688 5689 5690 5692 5693 5694 5695 5696 5697 5698 5698 5699 5700 5700 5700 5701 5701 5701 5701 5701 5701 5700 5700 5700 5700 5700 5700 5700 5700 5700 5700 5700 5699 5698 5698 5697 5696 5695 5695 5694 5693 5692 5690
5659 5660 5662 5663 5665 5666 5667 5668 5670 5671 5672 5673 5674 5675 5676 5677 5678 5679 5679 5680 5681 5682 5683 5684 5684 5685 5686 5688 5689 5690 5691 5692 5693 5694 5695 5696 5696 5697 5698 5698 5699 5699 5699 5699 5699 5699 5699 5698 5698 5698 5698 5699 5699 5699 5699 5698 5698 5697 5697 5696 5695 5695 5694 5693 5693 5692 5691 5690 5688
5656 5658 5660 5661 5663 5664 5665 5666 5668 5669 5670 5671 5672 5673 5674 5675 5676 5676 5677 5678 5679 5680 5681 5682 5683 5684 5685 5686 5687 5688 5689 5690 5691 5692 5693 5694 5695 5695 5696 5696 5696 5696 5696 5696 5697 5697 5697 5696 5696 5696 5696 5696 5696 5697 5696 5696 5696 5695 5695 5694 5693 5693 5692 5691 5690 5689 5688 5687 5686
5653 5655 5657 5659 5660 5662 5663 5665 5666 5667 5668 5669 5670 5671 5672 5673 5674 5675 5675 5676 5677 5678 5679 5680 5681 5682 5683 5684 5685 5686 5687 5689 5690 5690 5691 5692 5693 5693 5694 5694 5694 5694 5694 5694 5695 5695 5695 5695 5695 5695 5695 5695 5695 5695 5695 5694 5694 5693 5692 5692 5691 5690 5690 5689 5688 5687 5686 5685 5683
5650 5652 5654 5655 5657 5659 5661 5662 5664 5665 5666 5667 5668 5669 5670 5671 5672 5673 5674 5675 5675 5676 5677 5678 5679 5680 5681 5682 5683 5685 5685 5687 5688 5688 5689 5690 5691 5691 5692 5692 5692 5692 5692 5692 5692 5693 5693 5693 5693 5693 5693 5693 5693 5693 5693 5692 5692 5691 5690 5690 5689 5688 5687 5686 5685 5684 5683 5682 5681
5647 5649 5650 5652 5654 5656 5658 5660 5661 5662 5664 5665 5666 5667 5668 5669 5670 5671 5672 5673 5674 5675 5675 5676 5677 5679 5680 5680 5682 5683 5684 5685 5686 5687 5687 5688 5689 5689 5690 5690 5690 5690 5690 5690 5690 5690 5691 5691 5691 5691 5691 5691 5691 5691 5691 5690 5690 5689 5688 5688 5687 5686 5685 5684 5683 5682 5681 5680 5679
5645 5646 5648 5650 5651 5653 5655 5656 5658 5660 5661 5662 5663 5665 5666 5667 5668 5669 5670 5671 5672 5673 5674 5675 5676 5677 5678 5679 5680 5681 5682 5683 5684 5685 5685 5686 5687 5687 5687 5688 5688 5688 5688 5689 5689 5689 5689 5689 5689 5689 5689 5689 5689 5689 5689 5688 5687 5687 5686 5685 5685 5684 5683 5681 5680 5680 5678 5678 5677
5644 5645 5646 5647 5649 5650 5652 5653 5655 5656 5658 5659 5660 5662 5663 5665 5666 5667 5668 5669 5670 5671 5672 5673 5674 5675 5676 5677 5678 5679 5680 5681 5682 5682 5683 5684 5685 5685 5685 5685 5686 5686 5686 5686 5686 5687 5687 5687 5686 5687 5687 5687 5687 5687 5686 5686 5685 5685 5684 5683 5682 5681 5680 5679 5678 5677 5676 5675 5675
5642 5643 5644 5645 5646 5648 5649 5650 5652 5653 5655 5656 5658 5659 5661 5662 5664 5665 5666 5667 5668 5669 5670 5671 5672 5673 5674 5675 5676 5677 5678 5679 5679 5680 5681 5682 5682 5683 5683 5683 5684 5684 5684 5685 5685 5685 5685 5685 5685 5685 5685 5685 5685 5685 5684 5683 5683 5682 5681 5680 5680 5679 5678 5677 5676 5675 5674 5673 5673
5640 5642 5643 5644 5645 5646 5647 5648 5649 5650 5652 5654 5655 5657 5659 5660 5661 5663 5664 5665 5666 5667 5668 5669 5670 5671 5672 5673 5674 5675 5675 5676 5677 5678 5679 5680 5680 5680 5681 5681 5681 5682 5682 5682 5682 5682 5682 5682 5682 5683 5683 5682 5682 5682 5681 5681 5680 5680 5679 5678 5677 5676 5675 5675 5674 5673 5672 5671 5670
5638 5640 5641 5642 5643 5644 5645 5646 5647 5649 5650 5652 5654 5655 5656 5658 5659 5660 5662 5663 5664 5665 5666 5667 5668 5669 5670 5671 5672 5673 5674 5675 5676 5677 5677 5678 5678 5678 5679 5679 5679 5680 5680 5680 5680 5680 5680 5680 5680 5680 5680 5680 5680 5680 5679 5679 5678 5677 5677 5676 5675 5674 5673 5672 5672 5671 5670 5670 5669
5636 5637 5639 5640 5641 5642 5643 5644 5645 5647 5649 5650 5652 5653 5655 5656 5657 5659 5660 5661 5662 5663 5664 5665 5666 5667 5668 5669 5670 5671 5672 5673 5675 5675 5676 5676 5676 5676 5676 5677 5677 5677 5677 5678 5678 5678 5678 5678 5678 5678 5678 5678 5678 5677 5676 5676 5676 5675 5675 5674 5673 5672 5671 5670 5670 5669 5668 5668 5667